Vertical_Velocity
1 1 -0 -0 -11 -6 -1 -7 -0 -2 -2 -1 2 -3 -5 -0 -5 -11 -3 -2 -4 -4 -3 -4 -1 -0 -1 -1 -2 0 2 4 2 -1 -1 -1 -1 1 0 3 4 6 2 1 2 -0 -2 0 3
-0 2 1 -1 -9 -1 -6 -3 -1 -3 -4 3 -0 -1 -1 0 -2 -3 -2 -5 -2 0 -2 -2 -0 2 2 1 2 -0 -1 2 2 3 2 5 3 1 -1 -2 -4 -2 2 2 1 -1 0 -0 1
-1 2 -0 -4 -1 -3 -4 -1 0 -1 1 3 3 0 -2 -3 -1 1 -1 -3 -3 -1 -0 -2 -3 -1 -1 0 -0 0 1 -0 1 3 1 1 0 -0 -0 1 -0 -2 2 3 1 -1 -4 3 0
-1 -0 -1 -5 -2 -6 -3 -1 1 -2 -10 3 3 -0 1 -2 0 -3 -5 -1 -2 1 -0 2 -1 -1 0 2 5 4 3 4 4 4 -3 0 3 5 5 3 8 7 -2 1 3 0 -3 0 0
2 1 -2 0 -3 -2 -1 -2 2 -0 -1 -4 3 -1 -1 1 3 3 -3 -2 2 -1 1 1 1 0 3 3 1 4 7 2 8 -7 8 7 15 9 4 3 -0 -2 3 3 3 5 -0 -2 0
-0 -1 -2 -0 -3 -1 -1 -2 1 0 -3 -4 1 -1 -2 -3 -3 2 2 -2 -2 1 -1 1 1 2 1 1 3 3 5 3 4 -3 5 16 -18 9 18 6 13 2 1 4 4 -0 -1 2 1
-5 -3 -3 -1 -2 -1 -3 2 1 -1 0 -4 -1 -2 -1 -2 1 1 -1 -1 -1 -2 -1 -0 -1 0 2 2 2 1 2 2 5 6 2 5 -2 -53 10 -41 8 -1 8 3 5 1 0 2 1
-1 -4 1 -2 -1 -7 -3 -1 3 3 -5 5 -2 -3 -4 -8 -3 2 1 -1 -1 2 -1 1 -0 1 -0 2 1 5 6 8 7 2 5 5 -0 3 -16 1 -13 14 12 2 1 2 0 0 -1
2 -2 -0 -6 -0 -7 0 -2 -0 6 1 9 -1 -3 1 1 -1 -3 2 -1 -2 -0 0 -2 -2 -0 2 -2 1 3 8 3 1 4 4 5 -1 -6 -5 8 -3 7 10 13 0 -2 3 3 -0
-1 1 -7 -4 -2 -1 -0 1 2 -4 -3 -8 5 2 2 1 -2 -3 -4 -2 -2 -2 -1 -2 -4 1 1 -4 1 3 2 0 3 1 4 1 1 -1 2 1 -4 -16 13 8 5 -2 2 3 1
-1 -3 -2 -5 -1 2 0 -4 9 1 -4 -3 -2 -1 -2 2 2 2 1 -2 1 3 -0 -2 -2 2 2 -3 -1 -1 -2 -1 -2 -1 1 5 0 5 -8 6 1 -6 3 20 9 4 -0 -2 -2
3 -0 -2 -7 -1 1 -1 0 -1 4 -24 1 3 10 1 -1 -4 -4 -1 -3 -2 -2 0 -2 -2 0 0 -1 -1 1 -1 -1 1 1 -0 2 0 -0 -0 1 -1 13 2 0 -1 -4 4 1 -2
4 -1 2 -3 3 -1 5 -3 -6 -5 -8 4 10 1 -1 -1 -1 5 6 6 5 -3 2 -0 -0 -2 0 -3 0 -3 -1 -1 1 1 2 2 22 6 39 -5 -4 -0 1 4 1 1 -2 1 3
1 0 -4 -2 -5 0 7 -8 20 -17 -6 -3 13 -2 -0 -0 -9 6 -2 -1 -3 -0 -0 1 -1 -3 1 -4 -1 -4 -2 2 2 -0 1 -4 1 -19 3 3 -2 -14 6 0 5 -4 -1 -0 1
-3 5 -1 0 -2 -3 6 -1 -3 -13 3 -1 -1 5 2 -8 11 -11 -4 -4 -2 1 6 1 -1 -2 -0 -2 -2 -1 -3 -2 -1 1 1 0 5 -11 -17 -15 -8 -0 3 10 7 1 4 4 -0
3 2 0 -3 1 -8 9 -28 -5 -4 2 -3 -3 0 5 -1 -9 -1 -1 -1 1 1 -1 4 -2 -2 -2 -1 -1 -1 -2 -3 -1 -0 4 3 3 3 -3 -2 -1 7 0 -1 13 6 4 2 0
-0 -1 1 -4 -1 -0 2 -10 -1 3 3 -3 -2 -2 4 9 3 -5 -0 3 -4 4 -0 -1 -2 -2 0 0 -1 1 1 0 -1 -3 1 2 2 3 5 -1 1 1 2 2 -1 9 5 8 4
-3 0 1 -1 -2 1 -1 -6 -2 -3 2 -1 -4 -5 -3 0 -4 -3 -5 1 1 2 6 2 1 0 1 2 -0 -1 2 1 -1 -3 6 0 -2 2 3 4 2 3 -2 3 11 1 -4 2 3
0 1 0 -1 -3 3 -1 -1 -4 -3 -0 -2 -2 -2 -4 -4 10 5 9 8 2 4 2 -1 -2 -2 -0 0 -4 -0 -2 -2 -1 1 -2 23 -11 3 6 5 10 -3 6 7 7 14 7 8 0
1 1 -4 -2 -0 6 -1 -7 -4 -1 -3 -1 -1 -4 -3 -2 -3 2 -1 -1 3 4 7 -1 1 -1 -1 2 -1 -1 2 -3 -3 -2 -0 0 6 14 6 0 10 -1 6 2 4 7 -4 5 -1
-1 0 -1 0 -1 -1 2 -9 -2 -12 1 -0 -2 -2 -3 -2 2 1 -3 -5 4 -4 -2 -3 2 -0 -3 1 1 -1 -0 -2 -4 -4 -3 -2 1 5 -1 2 -1 5 0 3 0 7 6 -5 4
1 -1 1 0 2 -1 -2 -19 -6 -4 -4 -0 -3 -2 -6 4 4 7 8 -5 -5 -1 5 4 1 2 -0 -1 -0 -1 1 -1 -1 -4 -6 -3 -0 2 1 -6 1 18 6 3 -6 6 1 1 -4
-6 1 1 1 0 1 3 2 -23 2 -1 -5 -3 -2 -5 -7 8 -2 -6 -3 9 -3 2 4 1 1 1 -1 0 -1 -3 0 3 -3 -3 0 -1 -4 -2 -5 17 2 -2 3 -24 -1 8 -15 4
-0 -1 -0 -1 0 6 -7 1 -14 -1 -8 -3 -3 -4 -5 -7 -3 -3 10 19 4 5 -0 2 -0 1 -0 -1 0 -1 -2 -4 -0 1 -4 -3 -4 -1 -2 9 -0 10 -0 -3 -9 3 14 -5 16
0 0 -1 3 6 -5 -1 10 -21 -8 -5 -2 -3 -5 -5 5 4 2 -4 -8 -5 -4 -1 1 -1 -0 -2 -2 -0 -0 -1 -1 0 -2 -2 -3 -1 -4 -2 -0 4 1 -4 -17 -17 -10 -13 -5 -22
-2 1 -1 -1 -1 -2 1 -3 -13 -4 -2 -2 1 -3 -3 -9 4 -1 -3 -0 2 2 0 1 -2 -1 -1 -1 -1 -1 -2 -2 0 1 -2 1 -2 -3 -1 -1 -3 -1 3 -1 5 -2 1 9 9
-1 3 -2 2 0 3 -3 -7 -2 -4 -4 -4 -1 -4 -4 -3 1 -1 3 -2 2 -4 -5 -2 -1 -1 1 -0 1 -2 -2 -3 -5 -1 -1 2 4 -3 -4 1 0 -0 1 -2 2 -4 3 -4 -1
-6 1 8 3 1 -0 -3 -1 0 -4 -3 -3 -5 -1 -3 -2 -1 5 1 -1 3 7 9 2 1 1 2 1 2 -1 -4 -2 -0 -3 -3 -3 1 5 5 -1 -1 0 2 3 7 1 1 4 -4
2 1 1 3 2 1 0 -4 3 2 2 2 0 -0 3 3 1 2 11 8 7 5 5 3 -1 -2 -0 -0 -0 0 -1 -3 1 1 -3 -3 2 -1 1 5 3 1 -0 -0 -1 -0 3 -2 2
-2 -1 -1 2 -1 -1 -0 -9 1 2 2 3 0 2 6 1 4 1 4 7 7 10 13 14 9 6 7 5 3 3 3 1 -3 -0 -0 -1 -1 1 -2 1 4 4 2 2 2 5 3 -4 -8
Height
1493 1493 1494 1496 1508 1512 1513 1499 1484 1479 1474 1469 1469 1470 1470 1471 1475 1489 1476 1478 1479 1481 1482 1483 1484 1486 1489 1491 1493 1494 1496 1497 1498 1500 1501 1503 1505 1507 1509 1511 1514 1514 1514 1516 1518 1521 1524 1526 1528
1492 1493 1495 1495 1513 1521 1510 1488 1481 1475 1471 1471 1471 1471 1471 1473 1473 1474 1475 1476 1478 1479 1480 1481 1483 1485 1488 1490 1492 1493 1495 1497 1498 1499 1500 1502 1504 1507 1510 1512 1514 1516 1517 1517 1519 1522 1524 1526 1529
1491 1493 1494 1498 1515 1516 1504 1480 1473 1471 1471 1472 1470 1471 1471 1471 1472 1473 1474 1474 1476 1478 1480 1481 1482 1484 1487 1489 1491 1492 1494 1496 1497 1497 1500 1502 1504 1506 1508 1510 1512 1515 1517 1519 1520 1522 1525 1527 1530
1491 1494 1495 1502 1504 1495 1486 1475 1473 1472 1470 1470 1469 1471 1470 1469 1469 1470 1473 1474 1476 1477 1478 1480 1481 1483 1485 1488 1490 1492 1493 1494 1496 1497 1498 1500 1502 1504 1506 1509 1513 1515 1517 1520 1521 1522 1524 1527 1530
1490 1492 1501 1502 1495 1483 1477 1472 1474 1474 1472 1469 1469 1468 1468 1468 1469 1470 1470 1473 1475 1476 1477 1479 1480 1481 1483 1486 1488 1490 1491 1492 1494 1495 1497 1497 1502 1505 1506 1509 1513 1517 1518 1520 1522 1523 1525 1527 1530
1489 1490 1506 1505 1486 1476 1472 1469 1470 1468 1465 1465 1468 1467 1469 1468 1468 1469 1470 1472 1474 1476 1477 1478 1479 1480 1481 1483 1486 1488 1490 1490 1492 1493 1495 1498 1502 1508 1511 1511 1509 1517 1519 1520 1521 1524 1526 1529 1531
1486 1493 1498 1494 1484 1476 1467 1465 1463 1460 1460 1461 1461 1466 1467 1466 1467 1469 1470 1472 1473 1475 1476 1476 1477 1478 1479 1481 1484 1486 1488 1490 1491 1493 1495 1497 1497 1501 1505 1512 1512 1516 1518 1520 1523 1524 1527 1529 1532
1483 1486 1491 1488 1480 1474 1462 1462 1460 1459 1459 1459 1459 1463 1464 1461 1464 1467 1467 1470 1472 1472 1474 1475 1476 1477 1477 1478 1481 1483 1485 1487 1490 1491 1492 1494 1497 1497 1499 1506 1511 1516 1518 1520 1523 1525 1526 1529 1533
1479 1489 1491 1477 1477 1466 1462 1462 1458 1461 1461 1459 1456 1457 1457 1457 1461 1464 1466 1467 1468 1469 1470 1473 1474 1474 1473 1475 1478 1481 1483 1485 1487 1489 1490 1491 1493 1496 1499 1503 1506 1508 1514 1518 1522 1525 1527 1530 1534
1475 1481 1476 1464 1464 1462 1461 1463 1462 1462 1459 1459 1456 1455 1455 1456 1457 1458 1461 1462 1464 1466 1467 1470 1471 1470 1470 1472 1475 1478 1480 1482 1484 1486 1489 1490 1490 1492 1496 1499 1504 1506 1508 1517 1521 1524 1527 1529 1533
1467 1462 1462 1459 1459 1461 1461 1462 1462 1461 1460 1456 1456 1454 1454 1455 1456 1456 1458 1460 1462 1464 1465 1466 1467 1467 1467 1470 1472 1474 1477 1479 1481 1483 1485 1486 1487 1490 1493 1496 1500 1502 1501 1515 1519 1522 1525 1529 1532
1464 1456 1457 1455 1458 1460 1460 1457 1456 1457 1454 1453 1455 1450 1450 1451 1452 1453 1455 1457 1459 1461 1462 1463 1464 1464 1466 1469 1470 1472 1474 1476 1478 1480 1482 1483 1482 1482 1484 1489 1496 1499 1501 1512 1517 1522 1525 1529 1532
1458 1455 1453 1454 1455 1456 1455 1452 1452 1447 1448 1446 1448 1447 1446 1446 1449 1451 1453 1455 1456 1458 1458 1459 1460 1462 1463 1466 1468 1469 1471 1473 1476 1478 1480 1480 1474 1478 1480 1484 1492 1496 1506 1512 1516 1520 1525 1528 1532
1450 1450 1450 1452 1453 1453 1452 1445 1447 1443 1441 1439 1439 1440 1440 1441 1442 1447 1449 1451 1452 1454 1454 1455 1457 1458 1460 1462 1466 1467 1470 1471 1473 1476 1478 1478 1476 1479 1482 1487 1492 1498 1506 1511 1516 1520 1522 1527 1531
1449 1450 1448 1448 1449 1448 1447 1436 1440 1438 1436 1434 1433 1434 1435 1436 1439 1440 1443 1444 1447 1448 1450 1450 1453 1455 1457 1459 1462 1464 1467 1469 1471 1474 1477 1479 1479 1480 1484 1487 1492 1499 1504 1509 1515 1519 1523 1527 1531
1448 1447 1454 1444 1444 1443 1446 1420 1430 1432 1431 1428 1428 1429 1430 1431 1432 1434 1438 1439 1443 1446 1447 1448 1450 1452 1455 1457 1459 1462 1464 1466 1469 1472 1475 1478 1479 1481 1484 1488 1491 1496 1501 1507 1513 1517 1521 1524 1528
1451 1455 1452 1448 1441 1441 1440 1423 1426 1428 1428 1425 1423 1423 1424 1425 1427 1429 1433 1433 1436 1440 1443 1445 1447 1449 1452 1454 1456 1459 1461 1464 1466 1469 1471 1474 1477 1480 1483 1486 1490 1495 1501 1506 1511 1516 1521 1523 1527
1455 1454 1450 1449 1442 1440 1438 1429 1426 1425 1425 1423 1420 1419 1417 1418 1418 1422 1425 1428 1431 1436 1439 1442 1444 1446 1449 1450 1452 1455 1457 1460 1462 1466 1467 1470 1473 1477 1480 1483 1487 1493 1499 1503 1507 1513 1520 1523 1528
1445 1447 1451 1446 1441 1441 1437 1431 1423 1420 1418 1418 1414 1412 1410 1408 1408 1413 1417 1421 1424 1430 1434 1437 1439 1442 1445 1446 1448 1450 1452 1455 1458 1461 1464 1465 1469 1472 1475 1478 1484 1487 1494 1499 1504 1509 1514 1521 1527
1445 1449 1448 1443 1439 1439 1438 1429 1418 1413 1411 1412 1410 1405 1404 1401 1401 1404 1410 1414 1417 1422 1427 1431 1435 1438 1441 1443 1445 1446 1448 1450 1452 1455 1458 1461 1465 1466 1472 1476 1476 1486 1492 1497 1502 1505 1512 1519 1523
1445 1449 1447 1446 1439 1435 1435 1420 1414 1399 1403 1403 1402 1400 1398 1396 1395 1397 1402 1406 1412 1416 1420 1425 1429 1433 1437 1440 1441 1443 1444 1445 1448 1450 1452 1455 1459 1464 1468 1469 1475 1482 1487 1489 1499 1504 1508 1513 1521
1448 1441 1442 1443 1445 1446 1435 1423 1403 1401 1398 1397 1394 1394 1392 1392 1391 1392 1396 1401 1405 1409 1416 1421 1426 1430 1433 1436 1437 1438 1440 1441 1443 1445 1448 1450 1454 1459 1466 1466 1471 1473 1481 1487 1496 1503 1507 1514 1516
1444 1440 1442 1442 1444 1444 1441 1448 1386 1392 1394 1389 1386 1386 1387 1387 1387 1390 1390 1393 1398 1404 1410 1416 1422 1426 1429 1432 1434 1435 1436 1438 1440 1442 1445 1448 1452 1456 1460 1464 1465 1472 1478 1482 1489 1500 1505 1512 1516
1442 1443 1441 1442 1443 1440 1431 1437 1394 1394 1387 1380 1379 1377 1380 1382 1384 1384 1385 1389 1394 1399 1406 1412 1417 1422 1426 1428 1430 1432 1433 1435 1437 1439 1443 1447 1450 1453 1456 1460 1464 1464 1466 1475 1483 1495 1502 1509 1514
1444 1446 1458 1445 1443 1431 1412 1423 1398 1387 1376 1371 1369 1370 1372 1375 1375 1377 1379 1382 1387 1393 1399 1407 1413 1416 1421 1424 1427 1429 1432 1434 1436 1439 1441 1444 1448 1450 1453 1456 1459 1462 1467 1477 1486 1493 1500 1505 1510
1445 1442 1440 1433 1433 1424 1406 1408 1389 1370 1363 1365 1366 1363 1365 1365 1365 1368 1370 1372 1377 1386 1393 1401 1407 1412 1415 1420 1424 1427 1430 1433 1435 1438 1440 1443 1447 1452 1454 1456 1461 1466 1470 1476 1483 1490 1497 1501 1505
1442 1441 1438 1436 1432 1427 1410 1394 1378 1372 1373 1368 1362 1362 1362 1360 1358 1358 1361 1365 1373 1380 1387 1395 1402 1408 1412 1417 1421 1423 1427 1430 1433 1437 1440 1443 1446 1450 1455 1459 1463 1467 1470 1475 1480 1486 1491 1496 1501
1437 1438 1436 1435 1427 1418 1405 1398 1387 1388 1386 1379 1373 1367 1364 1353 1350 1350 1355 1359 1367 1377 1386 1393 1401 1406 1410 1414 1418 1420 1423 1427 1431 1435 1439 1442 1446 1450 1454 1457 1461 1466 1469 1475 1478 1482 1486 1492 1496
1437 1437 1438 1435 1429 1418 1413 1400 1393 1397 1395 1390 1382 1372 1362 1351 1351 1356 1358 1363 1368 1377 1384 1392 1398 1404 1408 1411 1414 1417 1420 1424 1429 1432 1436 1440 1444 1448 1452 1456 1460 1463 1467 1471 1474 1478 1482 1486 1492
1427 1430 1432 1430 1423 1419 1411 1408 1396 1394 1395 1394 1382 1375 1364 1354 1352 1358 1365 1367 1370 1377 1384 1391 1396 1401 1406 1410 1412 1415 1419 1422 1425 1429 1432 1436 1439 1444 1449 1454 1458 1461 1464 1467 1470 1473 1477 1481 1485